Showing default

BEIDOU 2 G8, 44231

Orbit data source: Space-Track

BEIDOU 2 G8, 44231 is a payload satellite owned by CNSA (CN) in GEO that was launched on Fri, 17 May 2019 UTC via a CHANG ZHENG 3C launch vehicle from the Xichang Space Center, China (XSC). Payload-class satellites include a variety of spacecraft equipped with specific instruments for various scientific and technological missions. These include communications satellites like Starlink; space stations such as the ISS; scientific satellites like the Hubble; Earth observation satellites from companies like Planet Labs, Umbra, and HawkEye 360; GPS; miniature CubeSats for education and research; and military/defense satellites.

Not visible in the next 10 days
Identifier
44231, 2019-027A
Orbit
GEO
Country
Flag of CNCN / PRC
Related business
Manufacturer
CAST
Mission
Operational Defense Navigation
Bus & Motor
DFH-3B, FY-25
Mass
~3,060 kg wet, 1,700 kg dry
Launch date (UTC)
2019-05-17 (6 years ago)
Launch vehicle
CHANG ZHENG 3C
Launch site
Xichang Space Center, China (XSC)
Object type
Payload
Rocket body
Debris
Shape & HBR
Box + 2 Pan, 9.0 m
Radar Cross Section
13.998 m², Large (>1 m²)

Expand to show TLE details & history
Last TLE update: 10 hours ago

TLE from 10 hours ago
0 BEIDOU 2 G8
1 44231U 19027A   25286.65889222 -.00000259  00000-0  00000-0 0  9995
2 44231   1.5064  74.4534 0007117 255.6758  74.1017  1.00270499 23606
Epoch: 2025-10-13T15:48Z
TLE epoch observation values (Epoch: 2025-10-13T15:48:48.287Z)
Latitude
-0.75934°
Longitude
144.63977°
Altitude
35,778.223 km
Speed
3.075 km/s
True Right ascension
02h 57m 11s
True Declination
0° 45' 31"
Sunlit
Object was in daylight at epoch
Visualization orbit readout
Latitude
Unknown
Longitude
Unknown
Altitude
Unknown
Speed
Unknown
Apparent Right ascension
Unknown
Apparent Declination
Unknown
Sunlit
N/A
Visualization observer readout
Local Sidereal Time
20:12:08
Azimuth
Unknown
Elevation
Unknown
Doppler factor
Unknown
Orbital elements
Apogee altitude
35,818.034 km
Perigee altitude
35,758.015 km
Semi-major axis
42,166.162 km
Eccentricity
0.00071
Inclination
1.5064°
RAAN
74.4534°
Arg. of periapsis
255.6758°
True anomaly
74.18015°
Mean anomaly
74.1017°
Eccentric anomaly
74.14093°
Mean motion
0.25067 °/min
Orbital period
1,436.17 mins
BSTAR
0
Loading maneuver chart data...
Computing Atmospheric mass density...
Loading historical data...
Loading historical data...
Loading historical data...
Loading historical data...
Loading historical data...
Loading historical data...
Loading historical data...
Other satellites on launch #27 in the year 2019 (2019-05-17 UTC)

Documentation

Showing up to 5 results
|